{"data":{"norad_id":62591,"intl_designator":"2025-008E","name":"STARLINK-11420 [DTC]","alt_names":[],"object_type":"PAYLOAD","status":"ACTIVE","operator":null,"country":"US","launch_date":"2025-01-13","launch_site_code":"AFETR","launch_vehicle":null,"mission":null,"orbit_class":"UNKNOWN","rcs_meters":null,"size_class":null,"mass_kg":null,"dimensions":null,"purposes":["comms"],"wikipedia_slug":null,"has_3d_model":false,"image_url":null,"decayed_at":null,"tle_current":{"epoch":"2026-09-21T18:51:46.431648Z","epoch_age_seconds":60206,"freshness":"FRESH","line1":"1 62591U 25008E   26264.78595407  .00245480  00000+0  18532-2 0  9996","line2":"2 62591  43.0006  24.2909 0002855 326.2327  33.8359 15.70934281 98131","mean_motion":15.70934281,"eccentricity":0.0002855,"inclination_deg":43.0006,"raan_deg":24.2909,"arg_perigee_deg":326.2327,"mean_anomaly_deg":33.8359,"bstar":0.0018532,"rev_number":9813,"period_min":91.665196782347,"perigee_km":354.30294177991,"apogee_km":358.14826282582,"semimajor_km":6734.3626023029,"source":"CELESTRAK","updated_at":"2026-09-22T09:00:49.631293Z"}}}